Location: Dobra
(49.7166°N, 20.2564°E)
Time: 23:53:11
(UTC+01:00)

ISS - Visible Passes

Search period start: 23 January 2019 00:00
Search period end: 02 February 2019 00:00
Orbit: 404 x 410 km, 51.6° (Epoch: 24 January)

Date Brightness Start Highest point End Pass type
(mag) Time Alt. Az. Time Alt. Az. Time Alt. Az.
23 Jan -1.7 18:39:38 10° SSW 18:41:05 21° SSW 18:41:05 21° SSW visible
24 Jan -2.2 17:48:51 10° SSW 17:51:26 22° SE 17:52:04 20° SE visible
24 Jan -0.6 19:24:21 10° WSW 19:24:47 13° WSW 19:24:47 13° WSW visible
25 Jan -1.5 16:58:32 10° S 17:00:17 14° SE 17:02:04 10° ESE visible
25 Jan -3.1 18:33:03 10° SW 18:35:41 48° SSW 18:35:41 48° SSW visible
26 Jan -3.1 17:41:53 10° SW 17:45:00 40° SSE 17:46:30 24° E visible
26 Jan -1.0 19:18:09 10° W 19:19:14 19° W 19:19:14 19° W visible
27 Jan -3.9 18:26:43 10° WSW 18:30:00 85° NW 18:30:00 85° NW visible
28 Jan -3.8 17:35:21 10° WSW 17:38:38 71° SSE 17:40:43 21° ENE visible
28 Jan -1.4 19:11:59 10° W 19:13:26 23° WNW 19:13:26 23° WNW visible
29 Jan -3.7 18:20:29 10° W 18:23:47 65° N 18:24:07 59° NNE visible
30 Jan -3.8 17:29:00 10° W 17:32:18 77° NNW 17:34:47 17° ENE visible
30 Jan -1.8 19:05:44 10° WNW 19:07:30 28° WNW 19:07:30 28° WNW visible
31 Jan -3.6 18:14:14 10° W 18:17:31 59° N 18:18:09 47° NE visible
31 Jan -0.1 19:50:52 10° WNW 19:50:52 10° WNW 19:50:52 10° WNW visible
01 Feb -3.6 17:22:43 10° W 17:26:00 62° N 17:28:49 13° ENE visible
01 Feb -2.3 18:59:24 10° WNW 19:01:32 37° WNW 19:01:32 37° WNW visible
